Date String (YYYY-MM-DD hh:mm:ss) UTC,Instrument flags,absolute air pressure of the measurement (hPa),sample flow rate (lpm),inlet stack bypass flow (lpm),air temperature of the measurement (°C),ambient temperature measured by the external sensor (°C),aerosol sample conditioner tube jacket temperature (°C),OPC LED temperature (°C),internal box temperature (°C),relative humidity of the measurement (%),span deviation,mass concentration of particles derived from Lorenz-Mie calculation of OPC scattering (μg/m³),mass concentration of particles derived from Lorenz-Mie calculation of OPC scattering (μg/m³),mass concentration of particles derived from Lorenz-Mie calculation of OPC scattering (μg/m³)
DateTimeUTC,F1_M11,P_M11,Q1_M11,Q2_M11,T1_M11,T2_M11,T3_M11,T4_M11,T5_M11,U1_M11,ZSPAN_M11,X0_M11,X2_M11,X1_M11
2023-11-13 21:00:00,SystemResetWarning,0832.9,4.99,000.00,028.8,026.5,000.0,036.9,030.2,8.7,0000.0,0009.83,0004.63,0003.86
2023-11-13 21:01:00,SystemResetWarning,0832.8,5.01,000.00,028.7,024.5,000.0,036.8,029.8,8.8,0000.0,0009.65,0004.57,0003.83
2023-11-13 21:02:00,SystemResetWarning,0832.8,5.01,000.00,028.6,024.2,000.0,036.8,029.6,8.9,0000.0,0009.54,0004.55,0003.80
2023-11-13 21:03:00,SystemResetWarning,0832.9,5.00,000.00,028.4,024.5,000.0,036.7,029.2,8.9,0000.0,0010.16,0004.52,0003.77
2023-11-13 21:04:00,SystemResetWarning,0832.7,5.00,000.00,028.2,025.0,000.0,036.7,029.2,8.9,0000.0,0010.32,0004.53,0003.74
2023-11-13 21:05:00,SystemResetWarning,0832.7,5.01,000.00,028.2,025.4,000.0,036.6,029.3,8.9,0000.0,0010.33,0004.47,0003.70
2023-11-13 21:06:00,SystemResetWarning,0832.7,4.99,000.00,028.2,025.8,000.0,036.6,029.3,8.9,0000.0,0010.60,0004.39,0003.66
2023-11-13 21:07:00,SystemResetWarning,0832.7,5.00,000.00,028.2,026.1,000.0,036.6,029.4,8.9,0000.0,0011.18,0004.34,0003.63
2023-11-13 21:08:00,SystemResetWarning,0832.7,5.00,000.00,028.2,026.4,000.0,036.5,029.5,8.9,0000.0,0011.71,0004.31,0003.59
2023-11-13 21:09:00,SystemResetWarning,0832.7,5.00,000.00,028.2,026.6,000.0,036.5,029.6,8.8,0000.0,0011.23,0004.27,0003.56
2023-11-13 21:10:00,SystemResetWarning,0832.7,4.99,000.00,028.2,026.8,000.0,036.5,029.7,8.8,0000.0,0011.20,0004.22,0003.52
2023-11-13 21:11:00,SystemResetWarning,0832.7,4.99,000.00,028.3,027.0,000.0,036.5,029.7,9.0,0000.0,0011.33,0004.21,0003.50
2023-11-13 21:12:00,SystemResetWarning,0832.7,5.01,000.00,028.3,027.2,000.0,036.5,029.8,9.0,0000.0,0011.75,0004.22,0003.48
2023-11-13 21:13:00,SystemResetWarning,0832.7,5.01,000.00,028.3,027.3,000.0,036.5,029.8,8.9,0000.0,0012.16,0004.16,0003.45
2023-11-13 21:14:00,SystemResetWarning,0832.7,5.00,000.00,028.4,027.4,000.0,036.6,029.9,8.8,0000.0,0012.23,0004.13,0003.42
2023-11-13 21:15:00,SystemResetWarning,0832.7,4.99,000.00,028.4,027.5,000.0,036.6,029.9,8.8,0000.0,0011.84,0004.11,0003.39
2023-11-13 21:16:00,SystemResetWarning,0832.7,4.99,000.00,028.4,027.6,000.0,036.6,030.0,8.8,0000.0,0012.65,0004.08,0003.38
2023-11-13 21:17:00,SystemResetWarning,0832.6,5.01,000.00,028.5,027.7,000.0,036.6,030.0,8.7,0000.0,0012.56,0004.08,0003.36
2023-11-13 21:18:00,SystemResetWarning,0832.6,5.01,000.00,028.5,027.7,000.0,036.6,030.1,8.7,0000.0,0011.87,0004.06,0003.34
2023-11-13 21:19:00,SystemResetWarning,0832.6,5.00,000.00,028.6,027.8,000.0,036.7,030.1,8.6,0000.0,0010.95,0004.04,0003.33
2023-11-13 21:20:00,SystemResetWarning,0832.6,5.00,000.00,028.6,027.8,000.0,036.7,030.1,8.6,0000.0,0010.84,0004.04,0003.30
2023-11-13 21:21:00,SystemResetWarning,0832.6,5.00,000.00,028.6,027.9,000.0,036.7,030.2,8.5,0000.0,0010.90,0004.04,0003.29
2023-11-13 21:22:00,SystemResetWarning,0832.6,5.00,000.00,028.7,027.1,000.0,036.7,030.2,8.6,0000.0,0011.02,0004.01,0003.27
2023-11-13 21:23:00,SystemResetWarning,0832.7,5.00,000.00,028.6,024.9,000.0,036.7,029.8,8.7,0000.0,0011.07,0003.99,0003.25
2023-11-13 21:24:00,SystemResetWarning,0832.6,5.01,000.00,028.4,023.9,000.0,036.6,029.5,8.8,0000.0,0011.02,0003.97,0003.24
2023-11-13 21:25:00,SystemResetWarning,0832.6,5.01,000.00,028.3,024.1,000.0,036.6,029.2,8.7,0000.0,0011.33,0003.94,0003.24
2023-11-13 21:26:00,SystemResetWarning,0832.6,4.99,000.00,028.1,024.5,000.0,036.5,029.0,8.7,0000.0,0011.33,0003.94,0003.24
2023-11-13 21:27:00,SystemResetWarning,0832.6,5.00,000.00,028.0,025.0,000.0,036.5,029.1,8.8,0000.0,0011.00,0003.93,0003.24
2023-11-13 21:28:00,SystemResetWarning,0832.6,5.00,000.00,028.0,025.4,000.0,036.4,029.2,8.9,0000.0,0011.54,0003.90,0003.24
2023-11-13 21:29:00,SystemResetWarning,0832.6,5.00,000.00,028.0,025.8,000.0,036.4,029.3,8.9,0000.0,0013.91,0003.91,0003.24
2023-11-13 21:30:00,SystemResetWarning,0832.6,4.99,000.00,028.0,026.1,000.0,036.4,029.4,9.0,0000.0,0014.22,0003.93,0003.24
2023-11-13 21:31:00,SystemResetWarning,0832.7,5.00,000.00,028.0,026.4,000.0,036.4,029.4,8.9,0000.0,0015.43,0003.95,0003.24
2023-11-13 21:32:00,SystemResetWarning,0832.7,5.00,000.00,028.1,026.6,000.0,036.4,029.5,9.0,0000.0,0015.96,0003.97,0003.24
2023-11-13 21:33:00,SystemResetWarning,0832.7,4.99,000.00,028.1,026.8,000.0,036.4,029.6,9.0,0000.0,0016.85,0003.99,0003.24
2023-11-13 21:34:00,SystemResetWarning,0832.6,4.99,000.00,028.1,026.9,000.0,036.4,029.6,8.9,0000.0,0017.23,0003.98,0003.25
2023-11-13 21:35:00,SystemResetWarning,0832.6,4.99,000.00,028.2,027.1,000.0,036.4,029.7,8.9,0000.0,0017.15,0003.98,0003.23
2023-11-13 21:36:00,SystemResetWarning,0832.6,5.00,000.00,028.2,027.2,000.0,036.4,029.8,8.9,0000.0,0016.36,0003.97,0003.22
2023-11-13 21:37:00,SystemResetWarning,0832.6,5.01,000.00,028.3,027.3,000.0,036.4,029.8,8.7,0000.0,0016.85,0003.94,0003.21
2023-11-13 21:38:00,SystemResetWarning,0832.6,5.00,000.00,028.3,027.4,000.0,036.4,029.9,8.7,0000.0,0017.15,0003.93,0003.20
2023-11-13 21:39:00,SystemResetWarning,0832.6,5.01,000.00,028.3,027.5,000.0,036.4,029.9,8.7,0000.0,0016.81,0003.95,0003.20
2023-11-13 21:40:00,SystemResetWarning,0832.6,5.01,000.00,028.4,027.6,000.0,036.5,030.0,8.6,0000.0,0015.76,0003.95,0003.20
2023-11-13 21:41:00,SystemResetWarning,0832.6,5.00,000.00,028.4,027.6,000.0,036.5,030.0,8.6,0000.0,0015.06,0003.94,0003.20
2023-11-13 21:42:00,SystemResetWarning,0832.6,5.00,000.00,028.5,027.7,000.0,036.5,030.0,8.5,0000.0,0016.39,0003.94,0003.21
2023-11-13 21:43:00,SystemResetWarning,0832.6,5.00,000.00,028.5,027.8,000.0,036.6,030.1,8.5,0000.0,0015.57,0003.92,0003.20
2023-11-13 21:44:00,SystemResetWarning,0832.5,5.00,000.00,028.5,027.8,000.0,036.6,030.1,8.5,0000.0,0015.97,0003.91,0003.20
2023-11-13 21:45:00,SystemResetWarning,0832.5,4.99,000.00,028.6,027.7,000.0,036.6,030.2,8.4,0000.0,0015.52,0003.90,0003.18
2023-11-13 21:46:00,SystemResetWarning,0832.5,5.00,000.00,028.6,025.9,000.0,036.6,029.9,8.4,0000.0,0015.22,0003.89,0003.18
2023-11-13 21:47:00,SystemResetWarning,0832.5,5.00,000.00,028.4,024.1,000.0,036.5,029.5,8.6,0000.0,0015.10,0003.88,0003.17
2023-11-13 21:48:00,SystemResetWarning,0832.5,5.01,000.00,028.3,023.9,000.0,036.5,029.2,8.7,0000.0,0015.14,0003.88,0003.18
2023-11-13 21:49:00,SystemResetWarning,0832.5,5.00,000.00,028.1,024.3,000.0,036.4,028.9,8.8,0000.0,0014.61,0003.89,0003.18
2023-11-13 21:50:00,SystemResetWarning,0832.5,5.00,000.00,028.0,024.8,000.0,036.4,028.9,8.8,0000.0,0014.21,0003.88,0003.18
2023-11-13 21:51:00,SystemResetWarning,0832.5,5.00,000.00,027.9,025.2,000.0,036.3,029.0,8.9,0000.0,0013.91,0003.85,0003.16
2023-11-13 21:52:00,SystemResetWarning,0832.5,5.00,000.00,027.9,025.6,000.0,036.3,029.2,8.8,0000.0,0013.80,0003.85,0003.15
2023-11-13 21:53:00,SystemResetWarning,0832.5,5.00,000.00,027.9,025.9,000.0,036.3,029.2,8.7,0000.0,0011.92,0003.79,0003.12
2023-11-13 21:54:00,SystemResetWarning,0832.5,5.00,000.00,027.9,026.2,000.0,036.3,029.3,8.9,0000.0,0011.61,0003.75,0003.11
2023-11-13 21:55:00,SystemResetWarning,0832.5,4.99,000.00,028.0,026.4,000.0,036.3,029.4,8.8,0000.0,0011.17,0003.75,0003.11
2023-11-13 21:56:00,SystemResetWarning,0832.5,5.00,000.00,028.0,026.6,000.0,036.3,029.5,8.9,0000.0,0010.68,0003.73,0003.11
2023-11-13 21:57:00,SystemResetWarning,0832.5,5.00,000.00,028.0,026.8,000.0,036.3,029.6,8.8,0000.0,0010.36,0003.73,0003.10
2023-11-13 21:58:00,SystemResetWarning,0832.5,5.01,000.00,028.1,027.0,000.0,036.3,029.6,8.8,0000.0,0010.42,0003.74,0003.09
2023-11-13 21:59:00,SystemResetWarning,0832.5,5.01,000.00,028.1,027.1,000.0,036.3,029.7,8.9,0000.0,0010.69,0003.72,0003.06
